This is the latest recevied weather packets stored in our database for station/object W8RD. If no packets are shown the sender has not sent any weather packets the latest 10 day(s).
| Time | Temp. | Humidity | Pressure | Rain* | Wind** | Luminosity | Snow |
|---|---|---|---|---|---|---|---|
| 1777853551 | 23.33° C | 62% | 1016.4 hPa | 0 mm | - | 1 W/m² | - |
| 1777852951 | 23.33° C | 62% | 1016.3 hPa | 0 mm | - | 3 W/m² | - |
| 1777852346 | 23.33° C | 63% | 1016.3 hPa | 0 mm | - | 9 W/m² | - |
| 1777851742 | 23.89° C | 63% | 1016.6 hPa | 0 mm | - | 15 W/m² | - |
| 1777851139 | 23.89° C | 62% | 1016.6 hPa | 0 mm | - | 23 W/m² | - |
| 1777850540 | 24.44° C | 61% | 1016.6 hPa | 0 mm | - | 26 W/m² | - |
| 1777849934 | 24.44° C | 61% | 1016.5 hPa | 0 mm | - | 40 W/m² | - |
| 1777849334 | 24.44° C | 62% | 1016.5 hPa | 0 mm | - | 31 W/m² | - |
| 1777848731 | 24.44° C | 61% | 1016.5 hPa | 0 mm | - | 37 W/m² | - |
| 1777848127 | 25° C | 62% | 1016.5 hPa | 0 mm | - | 38 W/m² | - |
| 1777847521 | 25° C | 61% | 1016.5 hPa | 0 mm | - | 92 W/m² | - |
| 1777846915 | 25° C | 60% | 1016.5 hPa | 0 mm | - | 84 W/m² | - |
| 1777846311 | 25° C | 61% | 1016.3 hPa | 0 mm | - | 58 W/m² | - |
| 1777845709 | 25.56° C | 58% | 1016.5 hPa | 0 mm | - | 75 W/m² | - |
| 1777845109 | 25° C | 59% | 1016.6 hPa | 0 mm | - | 96 W/m² | - |
| 1777844509 | 25.56° C | 59% | 1016.5 hPa | 0 mm | - | 145 W/m² | - |
| 1777843905 | 26.11° C | 58% | 1016.6 hPa | 0 mm | - | 188 W/m² | - |
| 1777843300 | 26.67° C | 56% | 1016.6 hPa | 0 mm | - | 419 W/m² | - |
| 1777842698 | 26.67° C | 56% | 1016.6 hPa | 0 mm | - | 298 W/m² | - |
| 1777842098 | 27.78° C | 53% | 1016.6 hPa | 0 mm | - | 467 W/m² | - |
| 1777841495 | 27.22° C | 54% | 1016.7 hPa | 0 mm | - | 500 W/m² | - |
| 1777840895 | 27.78° C | 54% | 1016.7 hPa | 0 mm | - | 536 W/m² | - |
| 1777840295 | 27.78° C | 51% | 1016.8 hPa | 0 mm | - | 570 W/m² | - |
| 1777839690 | 27.78° C | 51% | 1016.9 hPa | 0 mm | - | 607 W/m² | - |
| 1777839085 | 28.33° C | 50% | 1017 hPa | 0 mm | - | 637 W/m² | - |
* Rain latest hour (hover to see other rain measurements)
** Current wind speed in m/s (hover to see current wind gust speed)